#timestamp,LO_Frequency,Hit,StdDev 
1552125615.9,286047001.6,N
1552125635.7,286047002.1,N
1552125655.5,286047000.0,N
1552125675.4,286046998.2,N
1552125695.2,286047001.1,N
1552125715.1,286046999.7,N
1552125716.0,286046999.7,N
1552125735.8,286047002.5,N
1552125755.6,286047002.3,N
1552125775.5,286047002.2,N
1552125795.3,286047003.7,N
1552125815.2,286047004.2,Y
1552125835.9,286047002.2,P
1552125855.7,286047000.4,N
1552125875.6,286047000.3,N
1552125895.4,286047002.7,Y
1552125915.2,286047000.7,P
1552125935.1,286047000.1,N
1552125936.0,286047000.1,N
1552125955.8,286047000.2,N
1552125975.7,286047001.6,Y
1552125995.5,286047000.1,P
1552126015.3,286047002.5,P
1552126035.2,286047002.2,N
1552126055.0,286047002.6,N
1552126055.9,286047002.6,N
1552126075.7,286047000.2,N
1552126095.6,286047000.3,N
1552126115.4,286047000.9,N
1552126135.3,286047001.1,N
1552126155.1,286047002.8,N
1552126156.0,286047002.8,N
1552126175.8,286047003.1,N
1552126225.7,286047004.3,E
1552126235.6,286046999.8,N
1552126255.5,286046997.0,P
1552126275.3,286046997.4,N
1552126295.1,286046997.7,N
1552126315.9,286046997.8,N
1552126335.7,286046999.2,N
1552126355.6,286047002.5,N
1552126375.4,286047001.3,N
1552126395.2,286047000.0,N
1552126415.1,286046998.3,N
1552126416.0,286047011.9,Y
1552126435.8,286046998.1,P
1552126455.6,286047000.8,N
1552126475.5,286046998.6,N
1552126495.3,286046998.3,N
1552126515.2,286046999.5,N
1552126535.9,286046999.1,N
1552126555.7,286046998.9,N
1552126575.6,286046999.1,N
1552126595.4,286046998.1,N
1552126615.2,286046998.2,N
1552126635.1,286046997.7,Y
1552126636.0,286046997.7,P
1552126655.8,286046998.8,N
1552126675.7,286047001.2,N
1552126695.5,286047004.4,Y
1552126715.3,286047003.0,P
1552126735.2,286047004.1,N
1552126755.0,286047003.2,N
1552126755.9,286047003.2,N
1552126775.8,286047006.9,Y
1552126795.6,286047005.9,P
1552126815.4,286047003.2,N
1552126835.3,286047002.8,N
1552126855.1,286047001.9,N
1552126875.9,286047002.6,N
1552126895.7,286046999.7,N
1552126915.5,286047000.1,N
1552126935.4,286047000.5,N
1552126955.2,286047000.8,N
1552126975.0,286046999.0,N
1552126976.0,286046999.0,N
1552126995.8,286046999.1,N
1552127015.6,286046999.6,N
1552127035.5,286046996.5,N
1552127055.3,286047000.8,N
1552127075.1,286046996.6,N
1552127095.9,286046999.5,N
1552127115.7,286046999.2,N
1552127135.6,286046998.5,N
1552127155.4,286046999.2,N
1552127175.2,286046998.2,N
1552127195.1,286046999.0,N
1552127196.0,286046999.0,N
1552127215.8,286046996.5,N
1552127235.6,286047000.1,N
1552127255.5,286047003.0,N
1552127275.3,286047004.8,N
1552127295.2,286047004.9,N
1552127315.9,286047003.8,N
1552127335.7,286047001.8,N
1552127355.6,286047002.2,N
1552127375.4,286047001.5,N
1552127395.2,286046999.9,N
1552127415.1,286047002.5,N
1552127416.0,286047002.5,N
1552127435.8,286047002.1,N
1552127455.7,286047001.9,N
1552127475.5,286047002.3,N
1552127495.3,286047000.1,N
1552127515.2,286046998.4,N
1552127535.0,286046998.9,N
1552127535.9,286046998.9,N
1552127555.7,286046997.0,N
1552127575.6,286046997.3,N
1552127595.4,286046996.7,N
1552127615.3,286046996.8,N
1552127635.1,286046996.6,N
1552127636.0,286046996.6,N
1552127655.8,286046997.2,N
1552127675.7,286046998.8,N
1552127695.5,286046996.6,N
1552127715.3,286047000.6,N
1552127735.2,286046998.3,N
1552127755.0,286046998.6,N
1552127755.9,286046998.6,N
1552127775.8,286047001.1,N
1552127795.6,286047000.6,N
1552127815.4,286047001.0,N
1552127835.3,286047000.0,N
1552127855.1,286046999.9,N
1552127875.9,286046999.7,N
1552127895.7,286046999.8,N
1552127915.5,286046998.7,N
1552127935.4,286046997.0,N
1552127955.2,286046997.2,N
1552127975.0,286046997.2,N
1552127975.9,286046997.2,N
1552127995.8,286046998.0,N
1552128015.6,286046997.6,N
1552128035.5,286046999.4,N
1552128055.3,286047004.1,N
1552128075.1,286047005.6,Y
1552128095.9,286047009.0,P
1552128115.7,286047008.3,N
1552128135.6,286047008.7,N
1552128155.4,286047007.1,N
1552128175.2,286047004.6,N
1552128195.1,286047004.9,N
1552128196.0,286047004.9,N
1552128215.8,286047003.0,N
1552128235.6,286047005.5,N
1552128255.5,286047006.0,N
1552128275.3,286047003.6,N
1552128295.2,286047003.9,N
1552128315.9,286047004.2,N
1552128335.7,286047003.8,N
1552128355.6,286047003.1,N
1552128375.4,286047001.6,N
1552128395.2,286047000.3,N
1552128415.1,286047000.5,N
1552128416.0,286047000.5,N
1552128435.8,286047000.8,N
1552128455.7,286047000.1,N
1552128475.5,286047002.4,N
1552128495.3,286047003.7,N
1552128515.2,286047003.8,N
1552128535.0,286047004.2,N
1552128535.9,286047004.2,N
1552128555.8,286047004.3,N
1552128575.6,286047004.3,N
1552128595.4,286047003.9,N
1552128615.3,286047003.9,N
1552128635.1,286047001.9,N
1552128655.8,286047002.0,N
1552128675.7,286046999.8,N
1552128695.5,286047002.5,N
1552128715.4,286047002.1,N
1552128735.2,286047004.3,N
1552128755.0,286047002.1,N
1552128755.9,286047002.1,N
1552128775.8,286047002.0,N
1552128795.6,286047002.7,N
1552128815.4,286047002.5,N
1552128835.3,286047002.6,N
1552128855.1,286047000.0,N
1552128875.9,286047000.2,N
1552128895.1,286046999.7,N
1552128896.0,286046999.7,N
1552128915.8,286047000.4,N
1552128935.6,286046999.7,N
1552128955.5,286047002.5,N
1552128975.3,286047000.9,N
1552128995.1,286047004.3,N
1552129015.9,286047004.3,N
1552129035.7,286047003.2,N
1552129055.6,286047003.0,N
1552129075.4,286047004.1,N
1552129095.2,286047004.3,N
1552129115.1,286047004.0,N
1552129116.0,286047004.0,N
1552129135.8,286047003.9,N
1552129155.6,286047004.4,N
1552129175.5,286047003.8,N
1552129195.3,286047004.3,N
